Thor Agena Rocket - Orbit

View from above orbital plane
View from above orbital plane
View from above satellite
View from above satellite

Ground track
Ground track

The orbit data is extracted from the following two-line orbital elements,

1 00733U 64002A   13168.18834913  .00000061  00000-0  40186-4 0  9700
2 00733 098.9823 269.7309 0035280 107.6359 310.7227 14.31647511573212
Epoch (UTC): 17 June 2013 04:31:13
Eccentricity: 0.0035280
inclination: 98.9823°
perigee height: 761 km
apogee height: 811 km
right ascension of ascending node: 269.7309°
argument of perigee: 107.6359°
revolutions per day: 14.31647511
mean anomaly at epoch: 310.7227°
orbit number at epoch: 57321

The dashed part of the orbit path shows where the satellite is in the earth's shadow,  

Developed and maintained by Chris Peat, Heavens-Above GmbH. Please read the updated FAQ before sending e-mail. Imprint. DLR